Temp
40 39 38 40 41 36 31 28 29 34 42 41 40 40 38 38 38 37 37 36 36 36 36 35 34 33 34 32 31 29 29 28 27 26 25 25 25 26 26 26 26 24 24 25
39 38 40 42 42 36 37 37 36 42 42 41 41 41 40 38 38 38 37 37 37 36 36 36 34 34 33 32 31 30 29 28 27 26 26 26 26 26 27 26 25 24 24 24
39 40 42 41 41 41 41 41 41 41 41 42 41 39 38 37 38 39 39 38 38 37 37 36 35 34 33 32 31 29 29 28 27 28 27 26 25 26 26 25 25 24 23 23
39 41 41 41 41 41 40 42 42 40 40 39 42 39 34 28 32 39 39 39 38 38 37 36 35 34 34 32 31 30 29 28 27 27 26 26 26 25 26 25 24 24 24 23
39 40 40 40 40 41 40 42 41 41 40 40 40 40 37 34 24 29 39 39 39 38 38 37 36 35 34 33 31 30 28 28 27 27 27 26 27 26 26 25 24 24 24 23
40 41 41 41 41 41 41 40 40 40 40 37 39 40 40 37 35 34 31 34 38 40 38 38 37 36 35 34 32 31 28 28 27 27 27 26 27 27 26 26 25 24 24 23
39 39 41 41 39 40 40 39 37 37 37 37 41 40 41 38 39 35 31 32 38 41 38 38 37 37 35 35 33 32 29 27 27 26 26 26 27 27 26 26 26 26 25 25
37 37 40 41 39 38 39 40 38 35 37 38 41 40 41 39 38 41 37 37 42 41 39 38 38 37 36 35 34 33 29 28 27 26 26 26 26 27 26 26 27 26 26 25
36 37 41 41 41 40 38 38 40 39 40 39 40 41 42 37 32 31 43 43 42 42 41 39 38 38 36 35 34 32 30 28 27 27 26 26 26 26 27 27 26 26 26 24
37 36 39 40 40 40 39 40 37 39 36 35 38 39 40 37 35 42 43 43 42 42 42 40 38 38 36 35 33 32 29 28 27 27 26 26 26 26 26 26 26 26 25 24
38 37 37 39 39 38 39 38 38 39 38 37 37 39 43 40 39 40 43 42 42 42 42 41 39 38 37 36 34 32 29 28 27 27 26 26 26 26 26 26 25 25 24 23
37 36 35 37 40 40 40 39 39 38 36 38 38 38 42 42 42 42 40 42 41 40 42 41 40 39 37 35 35 33 30 28 28 28 27 27 26 26 26 26 25 24 22 21
35 34 34 35 37 38 37 38 38 39 39 37 37 38 43 42 42 42 41 42 40 40 40 41 41 39 36 35 35 33 31 29 28 28 28 27 27 27 26 25 24 22 22 21
32 33 34 33 35 36 35 36 37 37 37 37 38 38 40 41 41 40 40 39 39 39 40 39 40 38 37 36 35 33 31 30 29 29 29 28 27 27 25 24 23 22 21 20
34 32 34 35 35 35 35 36 36 36 37 36 37 37 39 40 40 40 39 39 39 38 38 39 39 40 36 35 34 33 32 31 30 30 29 28 27 25 24 23 22 21 20 20
35 33 33 33 35 35 35 36 36 36 36 37 37 37 40 40 40 39 39 38 37 36 36 37 38 38 37 35 34 32 32 31 31 30 29 28 25 24 23 22 21 20 19 19
33 33 32 31 34 34 33 35 36 36 37 37 36 38 38 39 39 38 38 37 36 35 36 36 36 38 39 36 33 32 31 31 30 29 28 26 24 23 21 21 20 19 19 18
33 32 32 31 32 30 35 37 37 36 37 38 38 37 27 34 38 37 36 35 35 35 35 35 36 36 39 37 34 32 31 31 30 28 26 24 22 21 20 20 19 19 18 18
35 33 32 31 32 33 34 36 36 35 35 36 37 28 23 23 25 31 30 31 33 33 34 36 37 36 36 38 34 31 30 30 28 27 24 22 22 20 20 19 18 18 18 18
35 35 33 32 30 30 33 36 37 36 33 35 34 26 23 21 20 26 27 27 32 31 31 32 33 36 37 36 32 30 30 29 27 25 23 22 21 20 19 19 18 18 18 18
33 32 31 32 31 32 35 36 37 32 32 33 33 32 26 26 31 33 33 32 30 29 28 27 30 32 36 35 31 29 29 27 26 23 21 21 20 20 19 18 18 17 17 17
31 31 31 32 31 30 34 34 33 32 33 33 32 31 31 31 32 33 32 32 29 28 27 26 26 27 27 31 31 29 28 26 23 21 21 21 20 19 18 18 17 17 18 17
31 32 31 31 32 33 34 33 33 32 33 32 32 31 31 31 31 31 30 29 31 28 27 25 25 24 25 25 26 27 22 22 21 20 20 20 19 18 18 17 16 17 17 17
31 32 31 30 32 32 32 33 32 32 32 32 32 31 30 30 30 30 30 29 30 29 27 25 24 24 23 23 21 22 21 21 20 20 20 19 19 18 16 16 16 18 18 18
29 29 29 29 30 30 31 31 31 30 30 30 30 30 30 30 29 29 29 29 28 30 28 26 24 23 22 21 20 20 21 20 20 20 19 18 17 16 16 17 17 18 18 19
28 28 28 28 29 28 28 29 30 29 29 29 29 29 29 29 29 29 28 29 28 28 29 27 25 24 22 20 19 19 19 19 19 18 17 17 16 16 17 18 17 19 19 19
Height
708 726 735 715 702 730 757 770 775 737 694 707 709 707 706 707 713 720 723 727 730 733 736 743 751 757 759 766 773 778 783 789 794 801 809 809 808 810 812 814 812 816 817 821
721 730 708 696 693 722 728 732 732 696 693 698 701 704 696 702 707 709 716 719 722 727 730 738 746 751 758 763 769 776 781 785 791 799 800 802 805 806 809 811 813 815 818 818
727 713 693 698 704 708 702 710 708 710 697 689 697 715 712 710 702 702 704 708 713 719 725 733 740 747 753 759 765 772 779 783 788 795 797 800 806 806 808 810 811 812 815 818
716 697 702 701 707 700 721 689 694 706 717 735 690 736 729 735 734 707 704 702 709 713 716 725 735 742 749 756 763 768 774 780 785 792 795 800 804 805 806 807 809 811 814 817
721 709 709 711 706 695 712 691 700 701 715 717 713 721 716 727 763 750 703 696 697 704 710 717 726 734 742 750 759 765 771 776 781 787 791 795 798 800 802 805 808 811 813 815
706 686 693 698 691 691 692 704 704 705 713 748 719 716 710 716 714 716 713 705 688 690 700 707 717 726 736 743 752 760 766 772 778 782 787 790 794 799 800 804 807 810 812 814
713 710 693 694 713 700 702 718 749 757 751 750 700 709 693 694 682 699 702 694 681 680 692 702 709 717 727 735 744 752 760 767 773 779 783 787 791 795 798 801 804 806 809 811
732 736 699 689 706 719 712 715 743 774 761 738 692 717 699 681 678 669 668 673 665 671 680 691 699 708 719 727 736 744 753 761 768 774 779 784 788 792 795 797 800 802 805 808
736 730 684 684 682 697 718 730 702 725 714 731 714 690 672 676 687 711 659 659 661 663 668 683 693 702 711 720 729 736 746 755 762 769 775 781 785 789 791 794 798 800 803 806
724 744 703 693 687 693 708 700 734 721 762 766 733 719 706 695 698 668 659 658 660 661 663 674 685 695 705 714 723 732 739 748 755 764 770 775 779 784 789 792 795 799 801 803
715 724 726 703 709 714 710 720 717 717 722 745 749 725 668 680 680 673 657 659 659 662 664 669 678 688 699 709 717 726 735 744 752 760 765 769 775 780 786 789 793 797 799 801
718 729 741 721 690 682 689 706 703 727 741 723 728 722 660 666 659 660 664 663 662 663 661 667 674 684 694 704 711 720 730 739 747 754 759 765 770 776 782 785 790 794 798 803
733 742 755 737 715 701 712 705 703 698 698 723 734 720 657 658 662 659 661 660 662 664 667 666 669 678 688 699 706 714 724 734 742 748 754 760 766 772 777 782 787 791 796 801
739 746 750 759 738 724 733 721 712 710 724 720 714 705 683 673 670 665 663 666 667 668 670 673 671 674 682 691 701 711 720 728 737 744 750 756 761 766 771 776 782 786 792 796
735 754 740 731 724 723 725 725 718 721 714 727 712 707 690 679 674 669 669 669 673 675 675 675 674 672 678 687 697 707 716 724 733 739 744 749 756 760 765 771 777 783 788 794
726 748 739 746 730 724 728 718 716 714 711 708 704 704 674 667 666 672 672 674 680 682 680 677 673 672 676 684 694 703 710 718 728 734 738 743 748 754 761 769 776 782 787 792
740 743 750 761 735 730 743 721 712 704 698 700 714 693 675 669 671 670 672 673 680 682 680 680 676 670 672 681 690 699 707 714 721 728 734 739 744 751 760 767 773 780 785 790
738 742 744 755 745 771 720 693 694 701 691 681 684 682 705 692 672 669 670 676 683 683 680 678 676 672 667 673 683 694 704 710 716 722 729 736 743 749 756 764 770 774 780 784
718 732 746 756 752 733 717 701 700 705 704 685 686 706 718 711 704 679 682 688 686 686 681 674 671 670 667 665 675 687 699 708 714 720 726 731 737 745 754 761 765 770 776 783
705 710 732 741 758 762 720 694 681 689 724 690 693 714 718 721 756 717 709 700 699 696 691 685 677 669 667 668 674 683 693 703 713 720 726 731 736 742 754 761 768 773 779 783
727 727 740 736 740 728 700 690 682 731 727 697 699 703 717 723 706 698 695 691 700 702 699 693 684 677 670 671 677 684 691 698 708 718 726 732 740 751 760 763 766 770 777 782
734 740 736 729 738 747 695 697 716 707 693 696 701 707 713 710 705 699 698 696 701 703 701 695 694 688 684 678 679 686 692 700 706 714 725 732 739 745 751 755 760 765 772 779
735 723 731 727 720 696 694 701 697 699 695 695 698 701 708 710 709 708 708 706 698 701 701 700 699 698 696 694 693 693 698 700 707 716 723 729 737 746 752 759 764 765 770 775
719 710 720 720 709 704 700 698 699 700 698 695 693 698 703 707 706 705 706 705 699 698 699 701 702 701 701 702 701 700 702 705 709 715 722 727 732 741 749 758 765 764 769 772
725 721 723 719 712 707 703 701 701 704 704 704 701 700 702 706 706 705 704 703 700 695 696 698 700 704 703 702 702 702 704 708 711 715 719 725 732 742 749 756 759 764 764 768
724 724 727 724 713 713 711 707 705 706 707 706 706 706 703 704 704 704 704 700 699 696 692 694 692 701 702 702 701 702 704 706 709 712 718 724 731 740 747 751 756 760 762 765
Wind_Speed
17 15 15 22 10 21 28 28 32 31 6 5 7 2 21 19 17 17 17 17 17 17 18 23 21 22 18 22 23 27 23 25 25 21 13 12 12 12 16 10 9 6 5 5
17 19 20 21 20 25 19 24 29 4 8 7 8 8 15 20 17 18 18 18 18 18 18 17 23 24 22 23 22 22 19 28 26 21 15 11 9 18 12 12 8 7 7 5
21 21 21 21 18 21 16 13 13 12 8 10 10 3 13 4 9 17 17 18 17 18 19 18 20 23 23 22 27 26 25 24 23 17 18 11 15 11 12 10 11 10 10 7
20 20 23 23 19 16 16 16 15 5 11 11 11 14 8 17 18 15 17 19 18 18 19 19 18 24 25 25 23 26 28 22 22 22 19 21 19 13 12 13 8 11 10 7
17 20 21 17 20 15 18 17 19 20 9 16 19 14 16 18 20 27 14 17 20 18 18 22 21 26 28 29 27 25 28 26 24 26 19 20 17 18 15 14 12 11 8 10
18 21 13 12 15 12 16 20 20 17 14 13 17 18 6 9 15 10 5 23 19 23 20 19 27 29 28 31 31 28 31 29 26 28 21 22 18 14 16 16 14 12 12 10
13 16 19 9 16 18 16 15 12 14 13 14 19 16 16 15 11 16 29 31 23 21 21 18 22 20 27 29 32 31 33 30 30 28 26 22 19 16 17 16 17 16 16 13
14 13 20 16 18 17 18 16 12 15 14 16 19 17 7 11 4 18 34 27 20 19 22 22 18 20 27 27 32 29 33 31 31 28 27 24 23 19 19 19 16 18 17 16
14 17 17 7 10 11 14 16 19 21 19 14 16 21 9 15 20 38 3 16 13 17 20 23 20 23 28 28 32 33 33 32 31 29 27 25 23 22 19 18 14 11 15 19
13 14 14 14 5 10 16 16 15 12 17 17 16 18 14 12 14 11 8 8 14 8 11 22 21 21 28 30 32 33 36 35 33 30 28 27 26 25 19 18 17 14 17 18
13 13 13 13 14 10 13 14 14 16 14 12 11 12 15 12 4 8 6 13 9 9 6 12 19 25 28 31 32 32 34 32 31 30 30 29 27 25 20 20 19 15 17 19
14 9 11 17 15 11 16 16 16 11 17 15 14 15 18 7 4 4 6 7 10 9 4 10 18 22 26 29 30 33 33 31 31 32 31 29 27 25 22 21 18 17 18 14
12 9 10 11 6 18 11 15 19 18 16 14 12 12 13 9 7 8 7 4 10 8 6 4 10 19 20 28 28 32 33 31 31 31 31 29 27 25 23 23 22 21 18 15
4 13 16 14 21 14 10 16 18 19 10 13 14 15 14 15 14 11 8 10 8 6 5 6 7 12 21 28 28 30 31 33 32 31 30 28 28 28 25 27 24 22 20 20
8 13 15 17 17 18 19 17 21 20 18 16 19 18 16 16 16 8 10 9 8 7 7 9 9 9 13 21 26 28 29 31 32 30 30 28 29 31 29 27 28 26 24 20
14 13 13 15 18 19 18 17 19 21 23 23 20 21 17 14 12 6 5 7 10 10 10 12 11 9 14 20 20 26 27 30 31 30 31 31 33 34 33 32 29 25 23 21
16 12 12 15 17 17 15 16 17 18 18 21 18 20 15 5 7 4 4 5 6 8 9 10 14 10 12 22 23 22 25 26 30 29 31 32 32 31 30 30 28 24 23 22
17 15 11 13 14 17 16 14 15 19 19 14 16 14 25 19 8 10 14 12 8 8 9 8 10 13 18 25 27 25 27 24 29 31 29 32 31 31 31 29 27 26 26 25
15 14 12 12 13 18 20 14 13 12 11 15 16 19 21 25 27 13 21 21 12 14 13 11 11 14 20 23 28 30 28 23 27 28 30 33 34 32 30 29 29 27 26 23
8 11 11 11 15 18 17 19 12 8 12 13 16 14 7 17 7 9 15 12 14 14 20 22 25 14 10 10 29 31 29 27 25 25 28 30 32 34 30 27 25 23 22 22
9 9 11 11 14 14 12 15 13 7 4 9 10 11 10 3 5 7 11 6 9 12 17 21 26 21 7 12 25 24 25 26 29 27 28 28 27 25 23 24 25 24 23 22
10 11 12 13 15 18 12 11 10 7 7 10 8 7 7 9 14 12 11 10 9 9 13 17 18 20 23 7 17 21 20 22 27 33 29 27 28 29 28 27 27 28 25 25
12 12 11 14 14 14 12 14 14 17 13 7 9 2 4 8 8 9 10 16 7 8 10 11 12 14 14 16 9 9 10 26 31 31 29 29 30 25 26 25 25 26 24 23
16 16 12 14 16 18 18 17 15 16 16 14 10 6 9 12 12 13 8 13 13 6 6 7 9 9 7 7 6 7 17 27 31 27 25 27 32 26 27 24 22 24 22 22
13 15 15 17 16 17 18 16 12 11 14 14 16 8 8 11 13 12 12 10 12 8 2 4 5 8 9 5 3 11 21 28 23 23 26 28 26 26 25 23 25 22 23 23
14 17 13 14 16 16 15 16 19 17 14 15 16 16 13 12 13 11 12 11 10 15 9 2 1 8 7 8 9 14 22 25 23 20 26 27 26 24 24 23 23 22 22 25
Wind_Direction
243 245 251 260 283 143 165 186 226 253 136 229 319 241 165 173 183 184 184 189 186 194 187 180 196 182 200 167 168 168 172 174 175 175 192 212 224 219 224 179 164 176 152 181
250 248 246 268 277 160 173 231 234 43 15 240 275 291 132 166 190 191 191 187 189 189 184 187 180 187 194 170 172 177 179 171 174 169 187 196 209 214 190 169 160 161 177 201
251 250 251 245 281 277 288 288 304 330 335 288 321 229 194 6 216 201 190 190 193 186 186 182 179 195 188 182 172 172 191 176 178 184 176 187 219 173 165 189 174 192 191 196
250 262 263 275 245 278 287 295 301 354 302 293 282 289 103 157 253 193 203 187 191 194 187 174 181 192 188 177 176 175 181 188 185 194 172 179 193 182 195 191 189 193 188 198
262 246 261 267 271 284 286 286 291 302 278 297 290 287 143 129 108 262 211 200 192 186 196 176 180 187 192 179 181 182 180 188 193 199 188 189 204 185 176 174 194 190 194 214
259 272 298 283 281 294 281 280 289 291 284 276 276 278 199 151 176 143 199 241 224 186 189 182 179 182 192 180 178 185 182 187 191 198 198 192 207 193 179 180 184 196 202 190
246 251 267 264 285 278 275 264 263 256 256 256 257 255 268 152 173 181 193 219 224 187 176 189 178 181 185 182 178 184 181 185 189 192 199 199 203 194 188 178 195 183 192 183
285 246 221 205 227 259 271 257 255 260 260 269 274 272 338 136 14 295 193 209 174 180 172 180 186 180 177 184 177 180 178 182 187 191 197 202 200 196 192 186 200 196 193 187
312 288 307 252 218 216 253 259 279 286 285 274 282 292 206 94 72 295 308 163 165 175 169 175 187 181 175 181 175 175 176 180 186 193 193 199 199 198 201 197 193 171 178 170
295 297 296 308 278 244 272 289 288 269 262 271 286 292 299 145 188 236 194 119 131 143 166 172 178 186 175 179 173 175 173 179 184 190 193 195 198 200 201 194 191 190 177 170
301 291 289 273 251 270 251 225 244 269 280 290 286 258 248 42 78 347 66 66 99 134 169 182 176 181 176 176 172 175 173 177 179 188 191 194 196 198 197 192 186 185 171 176
338 321 300 299 308 271 233 259 271 248 239 261 278 289 301 4 314 112 294 67 79 19 166 195 175 176 174 179 177 177 175 178 181 188 189 193 191 192 194 192 180 182 168 163
349 309 319 296 29 348 354 347 332 283 294 287 282 273 288 341 29 16 357 22 108 99 332 238 202 175 177 182 184 181 176 180 186 190 187 189 187 188 184 189 175 169 173 173
314 277 280 285 307 318 317 304 305 315 289 288 281 294 314 330 355 17 67 72 56 51 10 290 282 180 181 183 182 179 177 181 187 191 187 190 185 183 171 174 170 176 179 175
270 273 277 295 309 308 301 293 287 288 294 296 299 305 305 314 328 47 38 22 27 12 349 314 229 251 173 174 174 176 180 182 188 193 187 185 179 171 171 172 173 176 173 173
278 283 297 292 283 271 270 269 272 282 285 284 280 281 284 286 291 59 8 26 23 358 346 323 305 221 175 170 171 178 183 183 190 192 185 176 167 165 167 166 167 166 167 173
286 287 291 287 294 297 287 281 275 282 258 263 275 279 328 256 286 349 324 67 40 345 333 319 306 270 207 177 178 177 185 183 188 185 180 168 160 155 157 161 164 161 166 170
262 263 269 273 280 274 277 288 308 303 296 287 295 340 23 352 315 57 52 41 10 344 327 305 293 285 248 192 179 174 184 191 186 178 169 162 155 154 159 161 164 167 170 172
232 252 261 268 268 276 271 268 282 342 326 330 340 44 24 9 358 43 28 7 21 345 329 313 277 276 296 190 170 169 177 191 181 177 165 164 159 157 162 169 172 170 169 169
238 233 238 248 265 277 297 309 331 347 295 14 40 72 88 61 349 335 28 359 358 349 338 347 328 300 268 162 157 164 173 179 178 173 171 163 162 164 172 173 170 168 166 165
274 236 255 274 265 263 267 286 314 276 343 2 35 40 120 165 293 342 29 12 45 357 338 340 338 342 281 162 156 166 173 174 175 168 165 161 159 161 174 168 168 162 161 168
269 275 275 271 261 267 15 334 311 357 342 358 6 45 349 324 319 3 358 356 58 10 357 351 352 354 1 19 153 167 170 169 158 154 159 158 161 174 170 164 165 162 166 174
263 257 272 279 285 303 320 327 339 339 333 309 316 25 309 317 317 339 321 316 7 36 9 359 352 348 354 3 15 149 136 152 149 156 165 164 160 162 167 164 161 162 169 173
301 303 298 295 286 289 298 310 320 310 319 323 301 358 336 321 320 314 331 315 316 42 23 13 341 331 332 331 338 161 161 158 160 165 162 156 159 162 155 163 171 168 172 176
293 307 297 294 294 297 290 287 298 332 336 326 341 300 307 318 309 318 316 315 316 315 344 26 9 316 301 273 238 188 184 171 171 166 157 152 152 150 159 175 180 183 184 189
271 273 273 280 299 299 300 304 309 306 301 301 303 303 303 293 294 299 300 300 303 306 318 264 28 279 269 242 218 202 187 180 174 153 151 154 154 158 170 177 184 196 198 204